Weather in Rochegda

Russia / Arkhangel'skaya Oblast'     62°40′13″N   43°24′09″E
temp.,
°C
wind,
m/s
gust,
m/s
humid.,
%
clouds,
%
prec.,
mm/h
press.,
hPa
HPBL,
m
22 april, thu
thu2200:00+3sse51296100 0.4 1010765
03:00+3sse51296100 1.1 1009699
06:00+2sse41197100 0.8 1008720
09:00+3s41095100 0.9 1008714
12:00+6s41075100 0.3 10081281
15:00+6s4108694 0.5 1009988
18:00+6ssw61488100 1.5 10091645
21:00+4sw4888100 2.9 1011824
23 april, fri
fri2300:00+4sw4988100 0.1 1012916
03:00+4ssw269598 0.1 1014296
06:00+3s259414 0.0 1015161
09:00+8sse35715 0.0 1016536
12:00+13sse47586 0.0 10151430
15:00+15sse475086 0.1 10151949
18:00+13sse5106087 0.5 1014919
21:00+10sse41276100 1.0 1015598
24 april, sat
sat2400:00+9se4128196 0.2 1014521
03:00+8se4128495 0.2 1015392
06:00+8se4118584 0.0 1015463
09:00+10se4127682 0.0 1014578
12:00+14se6105251 0.0 10131684
15:00+15ese694419 0.0 10122218
18:00+12se5115426 0.1 10111392
21:00+10ese51163100 0.0 10111063
25 april, sun
sun2500:00+8ese51268100 0.0 1010721
03:00+6e41176100 0.0 1008636
06:00+7e41076100 0.0 1007926
09:00+6e41092100 0.1 10061097
12:00+7e4984100 0.2 10051150
15:00+6e4892100 0.4 1004948
18:00+5e3795100 0.5 1004873
21:00+5e3697100 1.0 1003895
26 april, mon
mon2600:00+4e3597100 0.8 1002841
03:00+4ene2598100 1.6 1001801
06:00+4ene2498100 0.8 1001826
09:00+4se1395100 1.3 1000821
12:00+4sse1394100 0.3 1001698
15:00+4s2397100 0.4 1002568
18:00+3ssw2598100 0.3 1002468
21:00+2sw3797100 0.9 1002445